Theta_e
283 283 283 281 280 280 280 280 280 280 281 280 281 280 279 278 278 279 277 276 277 279
282 282 280 280 280 280 280 283 281 280 280 280 281 280 279 277 278 278 277 277 277 281
283 282 281 281 281 280 280 281 281 281 280 280 281 280 279 278 279 278 278 278 277 279
281 282 281 281 281 280 280 281 281 281 281 281 280 280 279 279 280 279 278 278 278 281
282 281 280 280 280 280 280 281 281 282 281 281 280 280 279 280 280 279 279 278 281 279
281 280 280 280 280 280 280 280 281 281 281 280 280 280 281 281 280 279 279 280 279 280
280 281 280 280 280 280 280 280 281 280 280 280 280 280 282 281 279 278 278 280 281 280
282 282 281 280 280 280 280 281 280 280 280 279 279 281 282 281 278 278 277 279 281 281
282 281 280 280 280 279 279 279 279 278 278 277 278 283 284 282 278 278 278 278 280 281
282 280 279 279 279 278 277 277 277 276 276 276 276 282 284 283 279 278 278 278 279 280
281 279 278 277 276 276 276 275 276 275 276 276 277 281 283 283 279 278 279 279 280 280
280 277 276 275 274 274 274 274 274 275 275 275 276 281 283 282 278 279 278 280 280 281
278 276 274 273 272 273 273 275 276 276 275 277 275 280 283 282 280 278 278 279 280 281
275 274 274 272 272 272 273 273 273 275 275 276 278 279 282 282 280 279 278 278 278 279
Wind_Speed
6 3 3 2 2 3 2 3 3 1 4 5 5 5 5 4 4 5 4 6 5 4
5 5 3 3 3 3 3 3 3 2 4 5 5 5 6 4 6 6 4 5 5 6
5 3 3 3 5 5 5 4 4 3 5 5 5 6 6 5 7 6 5 4 6 5
4 4 4 4 5 5 4 5 4 4 5 5 5 7 7 8 7 8 7 6 5 7
4 4 5 5 6 5 5 4 2 4 5 5 7 8 8 9 9 8 9 7 9 6
5 5 5 5 5 6 5 4 1 5 5 6 8 8 8 8 8 8 8 6 6 8
5 4 5 6 6 6 5 3 5 4 5 7 8 9 9 8 7 8 8 8 7 8
4 5 6 7 6 6 6 5 5 4 6 7 8 8 11 10 7 8 8 9 9 9
6 6 6 6 6 6 5 6 5 6 6 9 7 19 20 15 7 8 8 9 10 10
6 6 6 6 7 7 6 5 6 6 6 9 8 20 23 19 7 7 8 9 10 9
6 5 6 6 7 6 5 5 4 6 7 8 8 20 24 19 9 8 9 10 9 10
5 6 6 7 6 5 5 5 5 6 8 9 10 20 23 16 9 9 10 9 9 10
6 5 6 5 5 4 4 5 6 8 8 12 10 18 22 18 7 9 8 9 10 17
6 5 4 4 4 5 5 6 6 8 8 10 12 12 22 22 9 8 8 8 9 9
Wind_Direction
76 80 68 51 4 349 349 332 306 346 351 349 354 346 327 319 318 305 303 302 298 295
67 62 54 26 357 343 335 314 314 357 340 344 353 331 325 323 310 301 292 294 293 312
70 58 43 26 5 346 324 318 319 335 338 347 344 321 332 316 299 305 305 304 310 298
48 30 22 15 349 331 316 309 330 337 341 349 336 326 328 320 317 322 319 317 318 315
48 28 18 1 346 324 330 321 318 349 357 346 330 318 318 326 325 328 326 319 328 303
34 16 9 352 337 339 339 337 13 18 8 343 327 314 322 325 324 325 321 310 321 320
32 0 3 351 350 341 334 7 25 36 14 341 317 318 332 333 330 324 328 319 320 312
25 18 6 360 352 348 6 38 22 32 0 338 322 336 348 344 336 329 324 321 315 312
35 28 8 8 6 13 16 33 34 25 350 338 334 338 353 357 342 329 323 321 319 314
46 40 17 10 20 15 18 36 26 2 344 335 324 346 350 358 342 327 320 320 318 320
51 36 22 24 13 6 3 11 359 347 338 330 336 349 347 1 342 328 323 322 327 319
45 37 29 23 1 352 10 357 344 347 342 336 337 350 348 3 346 344 334 337 332 341
52 46 43 17 7 356 359 356 349 350 346 339 331 345 356 4 346 349 339 340 343 345
70 60 43 20 17 14 8 349 344 351 343 340 345 343 2 3 359 354 342 343 341 338